K7MLX Weather Reports


time (UTC)temp
C
wind
direction
speed
KPH
gust
KPH
rain 1hr
cm
rain 24hr
cm
rain mn
cm
humidity
%
barometer
mb
20260504001538 23 65 9.7 22.5 0.00 0.00 0.00 44 1010.2
20260504000031 23 346 8.0 22.5 0.00 0.00 0.00 44 1010.4
20260503234539 23 5 9.7 24.1 0.00 0.00 0.00 44 1010.5
20260503233036 23 360 8.0 19.3 0.00 0.00 0.00 45 1010.8
20260503231532 23 331 8.0 25.7 0.00 0.00 0.00 45 1010.9
20260503230043 23 355 9.7 22.5 0.00 0.00 0.00 44 1011.0
20260503224537 23 303 6.4 24.1 0.00 0.00 0.00 44 1011.2
20260503223036 23 292 4.8 24.1 0.00 0.00 0.00 45 1011.5
20260503221543 23 10 8.0 24.1 0.00 0.00 0.00 42 1011.6
20260503220038 23 44 6.4 19.3 0.00 0.00 0.00 46 1011.7
20260503214546 23 38 11.3 22.5 0.00 0.00 0.00 48 1011.9
20260503213043 23 309 6.4 14.5 0.00 0.00 0.00 49 1012.0
20260503211535 23 355 4.8 14.5 0.00 0.00 0.00 44 1012.2
20260503210036 23 352 6.4 17.7 0.00 0.00 0.00 43 1012.2
20260503204539 22 311 4.8 16.1 0.00 0.00 0.00 45 1012.4
20260503203037 22 290 4.8 17.7 0.00 0.00 0.00 47 1012.6
20260503201538 22 277 6.4 17.7 0.00 0.00 0.00 47 1012.9
20260503200037 22 311 6.4 16.1 0.00 0.00 0.00 48 1013.0
20260503194540 22 304 6.4 20.9 0.00 0.00 0.00 48 1013.2
20260503193035 22 309 6.4 20.9 0.00 0.00 0.00 48 1013.3
20260503191540 21 352 4.8 20.9 0.00 0.00 0.00 51 1013.6
20260503190043 21 277 6.4 16.1 0.00 0.00 0.00 55 1013.7
20260503184538 20 326 4.8 14.5 0.00 0.00 0.00 61 1013.8
20260503183040 19 289 6.4 17.7 0.00 0.00 0.00 62 1014.0
20260503181556 18 317 4.8 17.7 0.00 0.00 0.00 63 1014.1
20260503180047 18 25 4.8 17.7 0.00 0.00 0.00 64 1014.2
20260503174537 18 294 3.2 14.5 0.00 0.00 0.00 65 1014.3
20260503173036 17 331 6.4 14.5 0.00 0.00 0.00 65 1014.3
20260503171534 17 13 4.8 14.5 0.00 0.00 0.00 67 1014.3
20260503081535 13 0 0.0 0.0 0.00 0.00 0.00 69 1014.6
20260503071534 14 0 0.0 0.0 0.00 0.00 0.00 67 1014.5
20260503054540 15 0 0.0 1.6 0.00 0.00 0.00 63 1014.4
20260503053036 16 0 0.0 0.0 0.00 0.00 0.00 62 1014.3
20260503051536 16 0 0.0 1.6 0.00 0.00 0.00 60 1014.4
20260503050036 17 0 0.0 4.8 0.00 0.00 0.00 57 1014.3
20260503044558 18 0 0.0 4.8 0.00 0.00 0.00 54 1014.2
20260503043041 18 26 1.6 12.9 0.00 0.00 0.00 53 1014.1
20260503041537 18 38 1.6 6.4 0.00 0.00 0.00 55 1013.9
20260503040046 18 35 3.2 9.7 0.00 0.00 0.00 55 1013.7
20260503034535 17 47 3.2 12.9 0.00 0.00 0.00 57 1013.5
20260503033036 17 45 3.2 16.1 0.00 0.00 0.00 58 1013.4
20260503031540 18 65 6.4 17.7 0.00 0.00 0.00 58 1013.3
20260503030038 18 36 6.4 14.5 0.00 0.00 0.00 58 1013.2
20260503024539 18 22 1.6 12.9 0.00 0.00 0.00 58 1013.1
20260503023047 18 5 4.8 19.3 0.00 0.00 0.00 57 1013.1
20260503021549 19 352 4.8 12.9 0.00 0.00 0.00 56 1013.1
20260503020038 20 30 3.2 19.3 0.00 0.00 0.00 54 1013.1
20260503014543 21 348 4.8 17.7 0.00 0.00 0.00 52 1013.2
20260503013037 21 27 3.2 17.7 0.00 0.00 0.00 50 1013.3
20260503011536 21 346 3.2 19.3 0.00 0.00 0.00 50 1013.2
20260503010040 21 350 8.0 20.9 0.00 0.00 0.00 47 1013.2
20260503004537 21 329 9.7 22.5 0.00 0.00 0.00 47 1013.4
20260503003039 21 352 4.8 24.1 0.00 0.00 0.00 51 1013.5